VKG121 LEPA-EKCH

Flight info

Callsign VKG121
Flight time 2h 45m
Altitude 36000
Route GALAT4R GALAT DCT FISTO DCT ADABI DCT VANAD UN874 BAMES UT191 PODEM UN873 ADUTO DCT DOSUR P729 TUDLO TUDLO3A
Aircraft A21N/M-SDE2E3FGHIRWXY/LB1

Departure

Time 2026-04-25 21:55
Airport Palma de Mallorca Airport (LEPA)

Arrival

Time 2026-04-26 00:40
Airport Copenhagen Kastrup Airport (EKCH)
Time Latitude Longitude Altitude Speed Heading
2026-04-25 21:43 39.55005 2.73439 44 ft 0 kts 164°
2026-04-25 21:44 39.55008 2.73438 44 ft 3 kts 163°
2026-04-25 21:45 39.55030 2.73423 42 ft 4 kts 129°
2026-04-25 21:45 39.55034 2.73416 42 ft 4 kts 112°
2026-04-25 21:45 39.55031 2.73381 42 ft 1 kts 58°
2026-04-25 21:45 39.55031 2.73380 42 ft 0 kts 58°
2026-04-25 21:49 39.55038 2.73395 39 ft 4 kts 57°
2026-04-25 21:49 39.55057 2.73432 41 ft 6 kts 58°
2026-04-25 21:49 39.55082 2.73485 44 ft 8 kts 60°
2026-04-25 21:50 39.55114 2.73551 44 ft 9 kts 59°
2026-04-25 21:50 39.55151 2.73630 44 ft 11 kts 60°
2026-04-25 21:50 39.55178 2.73727 44 ft 12 kts 103°
2026-04-25 21:50 39.55174 2.73801 44 ft 13 kts 64°
2026-04-25 21:51 39.55288 2.73761 44 ft 15 kts 328°
2026-04-25 21:51 39.55381 2.73685 44 ft 16 kts 328°
2026-04-25 21:51 39.55478 2.73606 44 ft 18 kts 329°
2026-04-25 21:51 39.55588 2.73524 43 ft 19 kts 333°
2026-04-25 21:52 39.55693 2.73574 42 ft 20 kts 63°
2026-04-25 21:52 39.55740 2.73681 44 ft 20 kts 59°
2026-04-25 21:52 39.55815 2.73841 43 ft 21 kts 58°
2026-04-25 21:52 39.55895 2.74011 43 ft 23 kts 58°
2026-04-25 21:53 39.55978 2.74187 43 ft 24 kts 58°
2026-04-25 21:53 39.56111 2.74311 43 ft 25 kts 28°
2026-04-25 21:53 39.56226 2.74257 41 ft 23 kts 242°
2026-04-25 21:53 39.56220 2.74243 43 ft 0 kts 224°
2026-04-25 21:54 39.56216 2.74236 41 ft 2 kts 231°
2026-04-25 21:54 39.56199 2.74202 43 ft 18 kts 236°
2026-04-25 21:54 39.56022 2.73822 44 ft 79 kts 236°
2026-04-25 21:54 39.55619 2.72985 44 ft 138 kts 238°
2026-04-25 21:55 39.55036 2.71746 94 ft 178 kts 238°
2026-04-25 21:55 39.54381 2.70359 617 ft 181 kts 238°
2026-04-25 21:55 39.53697 2.68951 1130 ft 189 kts 236°
2026-04-25 21:55 39.52939 2.67504 1623 ft 204 kts 236°
2026-04-25 21:56 39.52086 2.65849 2196 ft 237 kts 236°
2026-04-25 21:56 39.51452 2.64610 2587 ft 257 kts 236°
2026-04-25 21:56 39.50105 2.61971 3911 ft 267 kts 236°
2026-04-25 21:56 39.49090 2.59977 4997 ft 272 kts 236°
2026-04-25 21:57 39.48054 2.57946 5964 ft 275 kts 236°
2026-04-25 21:57 39.46981 2.55842 6772 ft 280 kts 236°
2026-04-25 21:57 39.45908 2.53739 7568 ft 285 kts 236°
2026-04-25 21:57 39.44842 2.51552 8390 ft 290 kts 243°
2026-04-25 21:58 39.44315 2.49035 9206 ft 294 kts 268°
2026-04-25 21:58 39.44609 2.46404 10031 ft 298 kts 291°
2026-04-25 21:58 39.45678 2.44105 10559 ft 310 kts 315°
2026-04-25 21:58 39.47491 2.42469 10883 ft 326 kts 339°
2026-04-25 21:59 39.49688 2.41536 11206 ft 345 kts 345°
2026-04-25 21:59 39.52069 2.40652 11508 ft 364 kts 345°
2026-04-25 21:59 39.54532 2.39649 11787 ft 383 kts 340°
2026-04-25 22:00 39.59429 2.36276 12601 ft 405 kts 331°
2026-04-25 22:00 39.61856 2.34446 13198 ft 409 kts 331°
2026-04-25 22:00 39.64335 2.32586 13778 ft 412 kts 331°
2026-04-25 22:00 39.66810 2.30733 14302 ft 414 kts 331°
2026-04-25 22:01 39.69322 2.28853 14770 ft 418 kts 331°
2026-04-25 22:01 39.71868 2.26944 15243 ft 420 kts 331°
2026-04-25 22:01 39.74388 2.25057 15694 ft 423 kts 331°
2026-04-25 22:01 39.76078 2.23787 16011 ft 425 kts 331°
2026-04-25 22:02 39.78839 2.21714 16478 ft 428 kts 332°
2026-04-25 22:02 39.81242 2.19914 16860 ft 431 kts 332°
2026-04-25 22:02 39.83826 2.17970 17323 ft 433 kts 331°
2026-04-25 22:02 39.86471 2.15978 17751 ft 436 kts 331°
2026-04-25 22:03 39.89084 2.14014 18175 ft 440 kts 331°
2026-04-25 22:03 39.91755 2.12007 18582 ft 443 kts 331°
2026-04-25 22:03 39.94436 2.09982 18967 ft 445 kts 331°
2026-04-25 22:03 39.97102 2.07967 19373 ft 448 kts 331°
2026-04-25 22:04 39.99814 2.05923 19780 ft 450 kts 331°
2026-04-25 22:04 40.02531 2.03864 20190 ft 452 kts 331°
2026-04-25 22:04 40.05260 2.01797 20613 ft 454 kts 331°
2026-04-25 22:04 40.07968 1.99742 21040 ft 457 kts 331°
2026-04-25 22:05 40.10735 1.97647 21473 ft 459 kts 331°
2026-04-25 22:05 40.13530 1.95603 21908 ft 461 kts 335°
2026-04-25 22:05 40.16476 1.94124 22328 ft 461 kts 346°
2026-04-25 22:05 40.19700 1.93361 22799 ft 462 kts 354°
2026-04-25 22:06 40.22868 1.92881 23246 ft 464 kts 355°
2026-04-25 22:06 40.26085 1.92406 23667 ft 467 kts 355°
2026-04-25 22:06 40.29335 1.91918 24007 ft 470 kts 354°
2026-04-25 22:06 40.32605 1.91419 24366 ft 473 kts 354°
2026-04-25 22:07 40.35883 1.90905 24712 ft 475 kts 354°
2026-04-25 22:07 40.38072 1.90563 24934 ft 476 kts 354°
2026-04-25 22:07 40.42471 1.89885 25409 ft 477 kts 354°
2026-04-25 22:07 40.45778 1.89371 25862 ft 476 kts 354°
2026-04-25 22:08 40.49050 1.88862 26333 ft 474 kts 354°
2026-04-25 22:08 40.52306 1.88350 26807 ft 471 kts 354°
2026-04-25 22:08 40.55529 1.87846 27259 ft 470 kts 354°
2026-04-25 22:08 40.58775 1.87336 27709 ft 468 kts 354°
2026-04-25 22:09 40.62024 1.86828 28157 ft 467 kts 354°
2026-04-25 22:09 40.65232 1.86320 28589 ft 465 kts 354°
2026-04-25 22:09 40.68454 1.85812 29013 ft 463 kts 354°
2026-04-25 22:09 40.71665 1.85308 29420 ft 462 kts 354°
2026-04-25 22:10 40.74818 1.84810 29808 ft 461 kts 354°
2026-04-25 22:10 40.78008 1.84308 30212 ft 460 kts 354°
2026-04-25 22:10 40.81196 1.83800 30550 ft 459 kts 354°
2026-04-25 22:10 40.84331 1.83302 30864 ft 458 kts 354°
2026-04-25 22:11 40.87522 1.82800 31181 ft 458 kts 354°
2026-04-25 22:11 40.90659 1.82306 31482 ft 457 kts 353°
2026-04-25 22:11 40.93841 1.81805 31798 ft 456 kts 353°
2026-04-25 22:11 40.96993 1.81307 32089 ft 456 kts 353°
2026-04-25 22:12 41.00122 1.80807 32389 ft 456 kts 353°
2026-04-25 22:12 41.03278 1.80303 32681 ft 455 kts 353°
2026-04-25 22:12 41.06418 1.79800 32968 ft 455 kts 353°
2026-04-25 22:12 41.08506 1.79467 33142 ft 454 kts 353°
2026-04-25 22:13 41.12690 1.78806 33507 ft 454 kts 353°
2026-04-25 22:13 41.15831 1.78299 33788 ft 453 kts 353°
2026-04-25 22:13 41.18928 1.77797 34044 ft 452 kts 353°
2026-04-25 22:13 41.22061 1.77292 34264 ft 452 kts 353°
2026-04-25 22:14 41.25171 1.76794 34461 ft 451 kts 353°
2026-04-25 22:14 41.28299 1.76294 34666 ft 451 kts 353°
2026-04-25 22:14 41.31388 1.75801 34866 ft 451 kts 353°
2026-04-25 22:14 41.34518 1.75299 35063 ft 450 kts 353°
2026-04-25 22:15 41.37634 1.74805 35226 ft 450 kts 353°
2026-04-25 22:15 41.40754 1.74309 35392 ft 450 kts 352°
2026-04-25 22:15 41.43832 1.73812 35562 ft 450 kts 352°
2026-04-25 22:16 41.50049 1.72806 35861 ft 450 kts 352°
2026-04-25 22:16 41.53172 1.72296 36008 ft 450 kts 352°
2026-04-25 22:16 41.56279 1.71788 36151 ft 449 kts 352°
2026-04-25 22:17 41.62450 1.70788 36187 ft 449 kts 352°
2026-04-25 22:17 41.68702 1.69777 36158 ft 449 kts 352°
2026-04-25 22:18 41.74891 1.68772 36150 ft 449 kts 352°
2026-04-25 22:18 41.81112 1.67758 36159 ft 449 kts 352°
2026-04-25 22:19 41.87294 1.66756 36166 ft 449 kts 352°
2026-04-25 22:19 41.93521 1.65741 36169 ft 449 kts 352°
2026-04-25 22:20 41.99708 1.64726 36171 ft 449 kts 352°
2026-04-25 22:20 42.05898 1.63706 36174 ft 449 kts 352°
2026-04-25 22:21 42.12087 1.62697 36181 ft 449 kts 352°
2026-04-25 22:21 42.18288 1.61684 36185 ft 449 kts 352°
2026-04-25 22:22 42.24491 1.60669 36194 ft 448 kts 352°
2026-04-25 22:22 42.30674 1.59655 36202 ft 448 kts 351°
2026-04-25 22:23 42.36849 1.58634 36210 ft 448 kts 352°
2026-04-25 22:23 42.43070 1.57599 36211 ft 448 kts 351°
2026-04-25 22:24 42.49219 1.56575 36218 ft 448 kts 351°
2026-04-25 22:24 42.55445 1.55539 36222 ft 448 kts 351°
2026-04-25 22:25 42.61616 1.54484 36225 ft 448 kts 351°
2026-04-25 22:25 42.67785 1.53445 36220 ft 447 kts 351°
2026-04-25 22:26 42.73920 1.52416 36225 ft 448 kts 351°
2026-04-25 22:26 42.80100 1.51382 36229 ft 448 kts 351°
2026-04-25 22:27 42.86301 1.50348 36230 ft 448 kts 351°
2026-04-25 22:27 42.92490 1.49304 36230 ft 449 kts 351°
2026-04-25 22:28 42.98663 1.48260 36233 ft 448 kts 351°
2026-04-25 22:28 43.04869 1.47211 36218 ft 452 kts 351°
2026-04-25 22:29 43.11107 1.46159 36226 ft 453 kts 351°
2026-04-25 22:29 43.17349 1.45103 36227 ft 452 kts 351°
2026-04-25 22:30 43.26711 1.43520 36221 ft 453 kts 351°
2026-04-25 22:30 43.31947 1.42624 36221 ft 453 kts 351°
2026-04-25 22:31 43.39206 1.41374 36218 ft 453 kts 351°
2026-04-25 22:31 43.45456 1.40305 36220 ft 453 kts 351°
2026-04-25 22:32 43.51714 1.39235 36216 ft 453 kts 351°
2026-04-25 22:32 43.57950 1.38159 36214 ft 453 kts 351°
2026-04-25 22:33 43.64248 1.37075 36230 ft 453 kts 351°
2026-04-25 22:33 43.70490 1.35987 36232 ft 453 kts 350°
2026-04-25 22:34 43.76743 1.34891 36228 ft 453 kts 351°
2026-04-25 22:34 43.82981 1.33802 36231 ft 453 kts 350°
2026-04-25 22:35 43.89265 1.32701 36221 ft 454 kts 351°
2026-04-25 22:35 43.95538 1.31611 36217 ft 454 kts 351°
2026-04-25 22:36 44.01774 1.30526 36215 ft 454 kts 351°
2026-04-25 22:36 44.08027 1.29445 36223 ft 454 kts 351°
2026-04-25 22:37 44.14314 1.28342 36230 ft 454 kts 351°
2026-04-25 22:37 44.20554 1.27237 36229 ft 454 kts 351°
2026-04-25 22:38 44.26832 1.26140 36228 ft 453 kts 351°
2026-04-25 22:38 44.33074 1.25023 36222 ft 454 kts 350°
2026-04-25 22:39 44.39343 1.23897 36209 ft 454 kts 350°
2026-04-25 22:39 44.45620 1.22757 36209 ft 453 kts 348°
2026-04-25 22:40 44.51744 1.20898 36212 ft 451 kts 345°
2026-04-25 22:40 44.57840 1.18966 36210 ft 451 kts 345°
2026-04-25 22:41 44.63975 1.17006 36216 ft 451 kts 345°
2026-04-25 22:41 44.70090 1.15037 36206 ft 451 kts 345°
2026-04-25 22:42 44.75188 1.13394 36203 ft 452 kts 345°
2026-04-25 22:42 44.82319 1.11097 36209 ft 452 kts 345°
2026-04-25 22:43 44.88460 1.09104 36205 ft 452 kts 345°
2026-04-25 22:43 44.93568 1.07448 36204 ft 453 kts 345°
2026-04-25 22:44 44.99718 1.05443 36295 ft 453 kts 345°
2026-04-25 22:44 45.05770 1.03471 36232 ft 444 kts 345°
2026-04-25 22:45 45.11817 1.01499 36214 ft 445 kts 345°
2026-04-25 22:45 45.17822 0.99536 36210 ft 445 kts 344°
2026-04-25 22:46 45.23854 0.97563 36214 ft 444 kts 345°
2026-04-25 22:46 45.29882 0.95580 36211 ft 444 kts 345°
2026-04-25 22:47 45.35905 0.93596 36205 ft 444 kts 345°
2026-04-25 22:47 45.41927 0.91605 36207 ft 444 kts 345°
2026-04-25 22:48 45.47912 0.89632 36207 ft 444 kts 345°
2026-04-25 22:48 45.53928 0.87639 36209 ft 443 kts 345°
2026-04-25 22:49 45.59946 0.85630 36216 ft 443 kts 345°
2026-04-25 22:49 45.65922 0.83644 36209 ft 443 kts 345°
2026-04-25 22:50 45.71923 0.81635 36202 ft 442 kts 345°
2026-04-25 22:50 45.77923 0.79634 36207 ft 442 kts 345°
2026-04-25 22:51 45.83888 0.77644 36198 ft 441 kts 345°
2026-04-25 22:51 45.89851 0.75629 36197 ft 440 kts 345°
2026-04-25 22:52 45.95819 0.73624 36194 ft 440 kts 345°
2026-04-25 22:52 46.00779 0.71958 36200 ft 439 kts 345°
2026-04-25 22:53 46.07738 0.69603 36192 ft 439 kts 345°
2026-04-25 22:53 46.13663 0.67597 36191 ft 439 kts 345°
2026-04-25 22:54 46.19608 0.65565 36184 ft 437 kts 345°
2026-04-25 22:54 46.25495 0.63569 36173 ft 437 kts 345°
2026-04-25 22:55 46.31414 0.61559 36179 ft 437 kts 345°
2026-04-25 22:55 46.37353 0.59520 36172 ft 437 kts 345°
2026-04-25 22:56 46.43237 0.57500 36185 ft 436 kts 345°
2026-04-25 22:56 46.49152 0.55473 36188 ft 436 kts 345°
2026-04-25 22:57 46.55100 0.53684 36183 ft 437 kts 353°
2026-04-25 22:57 46.58146 0.53705 36188 ft 439 kts
2026-04-25 22:57 46.61120 0.54425 36201 ft 440 kts
2026-04-25 22:58 46.67132 0.56206 36193 ft 440 kts 10°
2026-04-25 22:58 46.73128 0.57984 36195 ft 440 kts
2026-04-25 22:59 46.79136 0.59712 36193 ft 440 kts
2026-04-25 22:59 46.85103 0.61444 36178 ft 440 kts
2026-04-25 23:00 46.91106 0.63181 36186 ft 440 kts
2026-04-25 23:00 46.97106 0.64936 36187 ft 439 kts
2026-04-25 23:01 47.03154 0.66710 36138 ft 446 kts
2026-04-25 23:01 47.09267 0.68512 36176 ft 448 kts
2026-04-25 23:02 47.15373 0.70332 36188 ft 448 kts
2026-04-25 23:02 47.21474 0.72144 36196 ft 446 kts
2026-04-25 23:03 47.27530 0.73914 36196 ft 446 kts
2026-04-25 23:03 47.33633 0.75722 36200 ft 446 kts
2026-04-25 23:04 47.38701 0.77229 36205 ft 446 kts 10°
2026-04-25 23:04 47.45748 0.79326 36200 ft 445 kts 10°
2026-04-25 23:05 47.51830 0.81173 36200 ft 444 kts 10°
2026-04-25 23:05 47.57907 0.82962 36201 ft 444 kts
2026-04-25 23:06 47.63908 0.84747 36207 ft 441 kts 10°
2026-04-25 23:06 47.69922 0.86555 36205 ft 441 kts 10°
2026-04-25 23:07 47.75944 0.88372 36206 ft 441 kts 10°
2026-04-25 23:07 47.81981 0.90197 36211 ft 442 kts 10°
2026-04-25 23:08 47.87879 0.92794 36216 ft 443 kts 17°
2026-04-25 23:08 47.93717 0.95759 36215 ft 443 kts 17°
2026-04-25 23:09 47.99522 0.98718 36218 ft 443 kts 17°
2026-04-25 23:09 48.05358 1.01671 36222 ft 443 kts 17°
2026-04-25 23:10 48.11215 1.04648 36219 ft 443 kts 17°
2026-04-25 23:10 48.17022 1.07612 36221 ft 444 kts 17°
2026-04-25 23:11 48.22869 1.10598 36227 ft 444 kts 17°
2026-04-25 23:11 48.28725 1.13581 36225 ft 445 kts 17°
2026-04-25 23:12 48.34554 1.16560 36232 ft 445 kts 18°
2026-04-25 23:12 48.40419 1.19562 36233 ft 444 kts 17°
2026-04-25 23:13 48.46283 1.22575 36230 ft 445 kts 17°
2026-04-25 23:13 48.52144 1.25595 36233 ft 445 kts 17°
2026-04-25 23:14 48.58019 1.28591 36237 ft 445 kts 17°
2026-04-25 23:14 48.63837 1.31517 36241 ft 443 kts 17°
2026-04-25 23:15 48.69720 1.34487 36236 ft 445 kts 17°
2026-04-25 23:15 48.75584 1.37452 36244 ft 445 kts 17°
2026-04-25 23:16 48.81491 1.40442 36253 ft 445 kts 17°
2026-04-25 23:16 48.87344 1.43419 36271 ft 444 kts 17°
2026-04-25 23:17 48.93180 1.46400 36272 ft 444 kts 18°
2026-04-25 23:17 48.99090 1.49040 36247 ft 444 kts
2026-04-25 23:18 49.05190 1.50428 36245 ft 444 kts
2026-04-25 23:18 49.08257 1.51119 36366 ft 444 kts
2026-04-25 23:18 49.11321 1.51828 36312 ft 439 kts
2026-04-25 23:19 49.17328 1.53237 36262 ft 442 kts
2026-04-25 23:19 49.23391 1.54875 36254 ft 446 kts 14°
2026-04-25 23:20 49.26291 1.56626 36259 ft 450 kts 25°
2026-04-25 23:20 49.28902 1.59289 36264 ft 454 kts 38°
2026-04-25 23:20 49.33493 1.65933 36275 ft 455 kts 42°
2026-04-25 23:21 49.38030 1.72659 36288 ft 454 kts 41°
2026-04-25 23:21 49.42610 1.79389 36273 ft 455 kts 41°
2026-04-25 23:22 49.47170 1.86095 36272 ft 455 kts 41°
2026-04-25 23:23 49.54039 1.96234 36281 ft 456 kts 41°
2026-04-25 23:23 49.58611 2.03006 36263 ft 456 kts 41°
2026-04-25 23:24 49.63155 2.09772 36255 ft 456 kts 41°
2026-04-25 23:24 49.67708 2.16558 36252 ft 456 kts 41°
2026-04-25 23:25 49.72278 2.23390 36242 ft 456 kts 41°
2026-04-25 23:25 49.76822 2.30198 36246 ft 457 kts 42°
2026-04-25 23:26 49.81385 2.37053 36243 ft 457 kts 42°
2026-04-25 23:26 49.85919 2.43910 36241 ft 457 kts 42°
2026-04-25 23:27 49.90485 2.50805 36241 ft 457 kts 42°
2026-04-25 23:27 49.95045 2.57708 36264 ft 457 kts 42°
2026-04-25 23:28 49.99568 2.64574 36260 ft 457 kts 42°
2026-04-25 23:28 50.04127 2.71515 36260 ft 457 kts 42°
2026-04-25 23:29 50.08637 2.78400 36262 ft 457 kts 42°
2026-04-25 23:29 50.13157 2.85321 36254 ft 457 kts 42°
2026-04-25 23:30 50.17699 2.92300 36261 ft 456 kts 43°
2026-04-25 23:30 50.22194 2.99223 36260 ft 456 kts 43°
2026-04-25 23:31 50.26720 3.06214 36258 ft 456 kts 43°
2026-04-25 23:31 50.31228 3.13209 36259 ft 456 kts 43°
2026-04-25 23:32 50.35741 3.20222 36257 ft 456 kts 43°
2026-04-25 23:32 50.40320 3.26995 36261 ft 453 kts 35°
2026-04-25 23:33 50.45792 3.31796 36263 ft 450 kts 24°
2026-04-25 23:33 50.50465 3.35411 36260 ft 450 kts 26°
2026-04-25 23:34 50.55647 3.41033 36264 ft 453 kts 35°
2026-04-25 23:34 50.60657 3.46989 36270 ft 452 kts 35°
2026-04-25 23:35 50.65700 3.52978 36263 ft 452 kts 35°
2026-04-25 23:35 50.70705 3.58925 36264 ft 452 kts 35°
2026-04-25 23:36 50.75714 3.64904 36267 ft 452 kts 35°
2026-04-25 23:36 50.80759 3.70939 36270 ft 452 kts 35°
2026-04-25 23:37 50.85761 3.76932 36269 ft 453 kts 36°
2026-04-25 23:37 50.90764 3.82951 36266 ft 453 kts 36°
2026-04-25 23:38 50.95768 3.88982 36267 ft 453 kts 36°
2026-04-25 23:38 51.00804 3.95076 36267 ft 453 kts 36°
2026-04-25 23:39 51.05790 4.01117 36270 ft 453 kts 36°
2026-04-25 23:39 51.10799 4.07209 36274 ft 453 kts 36°
2026-04-25 23:40 51.15789 4.13323 36280 ft 453 kts 36°
2026-04-25 23:40 51.20797 4.19472 36282 ft 453 kts 36°
2026-04-25 23:41 51.25774 4.25584 36291 ft 453 kts 36°
2026-04-25 23:41 51.30763 4.31714 36285 ft 453 kts 37°
2026-04-25 23:42 51.35770 4.37888 36287 ft 453 kts 37°
2026-04-25 23:42 51.40754 4.44048 36290 ft 453 kts 37°
2026-04-25 23:43 51.45723 4.50211 36290 ft 453 kts 37°
2026-04-25 23:43 51.50685 4.56382 36288 ft 452 kts 37°
2026-04-25 23:44 51.55644 4.62550 36282 ft 451 kts 37°
2026-04-25 23:44 51.60606 4.68748 36292 ft 450 kts 37°
2026-04-25 23:45 51.65384 4.74739 36296 ft 451 kts 37°
2026-04-25 23:45 51.70138 4.80718 36295 ft 451 kts 37°
2026-04-25 23:46 51.75064 4.86933 36289 ft 451 kts 37°
2026-04-25 23:46 51.79979 4.93150 36289 ft 450 kts 37°
2026-04-25 23:47 51.84910 4.99409 36288 ft 450 kts 37°
2026-04-25 23:47 51.89840 5.05689 36296 ft 450 kts 37°
2026-04-25 23:48 51.94728 5.11931 36296 ft 450 kts 37°
2026-04-25 23:48 51.99648 5.18233 36295 ft 450 kts 37°
2026-04-25 23:49 52.04551 5.24516 36292 ft 450 kts 37°
2026-04-25 23:49 52.09462 5.30833 36290 ft 450 kts 37°
2026-04-25 23:50 52.14377 5.37174 36290 ft 450 kts 37°
2026-04-25 23:50 52.19289 5.43518 36303 ft 449 kts 37°
2026-04-25 23:51 52.24169 5.49846 36297 ft 448 kts 37°
2026-04-25 23:51 52.29012 5.56161 36290 ft 448 kts 37°
2026-04-25 23:52 52.33894 5.62539 36290 ft 448 kts 37°
2026-04-25 23:52 52.38735 5.68871 36296 ft 448 kts 38°
2026-04-25 23:53 52.43581 5.75237 36288 ft 448 kts 37°
2026-04-25 23:53 52.48447 5.81651 36283 ft 448 kts 38°
2026-04-25 23:54 52.53290 5.88041 36282 ft 448 kts 38°
2026-04-25 23:54 52.58163 5.94496 36283 ft 448 kts 38°
2026-04-25 23:55 52.63007 6.00944 36288 ft 449 kts 38°
2026-04-25 23:55 52.67832 6.07365 36285 ft 447 kts 37°
2026-04-25 23:56 52.72689 6.13855 36286 ft 447 kts 38°
2026-04-25 23:56 52.77498 6.20303 36287 ft 447 kts 38°
2026-04-25 23:57 52.82320 6.26785 36285 ft 447 kts 38°
2026-04-25 23:57 52.87141 6.33287 36284 ft 447 kts 38°
2026-04-25 23:58 52.91965 6.39818 36283 ft 447 kts 38°
2026-04-25 23:58 52.96782 6.46353 36289 ft 447 kts 38°
2026-04-25 23:59 53.01565 6.52861 36291 ft 447 kts 38°
2026-04-25 23:59 53.06370 6.59412 36286 ft 447 kts 38°
2026-04-26 00:00 53.11182 6.65992 36287 ft 446 kts 37°
2026-04-26 00:00 53.15987 6.72591 36283 ft 446 kts 37°
2026-04-26 00:01 53.20757 6.79161 36296 ft 446 kts 37°
2026-04-26 00:01 53.25521 6.85740 36290 ft 446 kts 37°
2026-04-26 00:02 53.30297 6.92356 36290 ft 446 kts 37°
2026-04-26 00:02 53.35077 6.98997 36297 ft 446 kts 37°
2026-04-26 00:03 53.39825 7.05611 36293 ft 446 kts 37°
2026-04-26 00:03 53.44614 7.12319 36284 ft 446 kts 37°
2026-04-26 00:04 53.49360 7.18989 36285 ft 446 kts 37°
2026-04-26 00:04 53.54117 7.25683 36292 ft 446 kts 37°
2026-04-26 00:05 53.58823 7.32307 36267 ft 442 kts 36°
2026-04-26 00:05 53.63558 7.38991 36265 ft 442 kts 37°
2026-04-26 00:06 53.68238 7.45628 36261 ft 442 kts 37°
2026-04-26 00:06 53.72934 7.52323 36257 ft 442 kts 37°
2026-04-26 00:07 53.77627 7.59024 36264 ft 441 kts 36°
2026-04-26 00:07 53.82311 7.65724 36260 ft 441 kts 36°
2026-04-26 00:08 53.86989 7.72426 36260 ft 441 kts 37°
2026-04-26 00:08 53.91664 7.79175 36256 ft 441 kts 37°
2026-04-26 00:09 53.96322 7.85917 36254 ft 441 kts 37°
2026-04-26 00:09 54.00979 7.92673 36292 ft 439 kts 36°
2026-04-26 00:10 54.05607 7.99405 36266 ft 436 kts 36°
2026-04-26 00:10 54.10232 8.06151 36246 ft 437 kts 36°
2026-04-26 00:11 54.14847 8.12905 36242 ft 437 kts 36°
2026-04-26 00:11 54.19437 8.19639 36234 ft 437 kts 36°
2026-04-26 00:12 54.24033 8.26406 36249 ft 435 kts 36°
2026-04-26 00:12 54.28633 8.33194 36220 ft 435 kts 36°
2026-04-26 00:13 54.33197 8.39949 36216 ft 435 kts 36°
2026-04-26 00:13 54.37770 8.46732 36216 ft 435 kts 36°
2026-04-26 00:14 54.42347 8.53540 36219 ft 436 kts 36°
2026-04-26 00:14 54.46916 8.60367 36249 ft 433 kts 35°
2026-04-26 00:15 54.51432 8.67129 36217 ft 430 kts 35°
2026-04-26 00:15 54.55946 8.73909 36212 ft 430 kts 35°
2026-04-26 00:16 54.60442 8.80690 36216 ft 430 kts 35°
2026-04-26 00:16 54.64958 8.87519 36203 ft 430 kts 35°
2026-04-26 00:17 54.69432 8.94325 36224 ft 430 kts 35°
2026-04-26 00:17 54.73927 9.01180 36196 ft 429 kts 34°
2026-04-26 00:18 54.78416 9.08026 36193 ft 429 kts 34°
2026-04-26 00:18 54.82868 9.14843 36179 ft 429 kts 35°
2026-04-26 00:19 54.87204 9.22047 36179 ft 435 kts 41°
2026-04-26 00:19 54.91217 9.29939 36236 ft 435 kts 41°
2026-04-26 00:20 54.95187 9.37790 36198 ft 433 kts 40°
2026-04-26 00:20 54.99168 9.45676 36198 ft 433 kts 40°
2026-04-26 00:21 55.03119 9.53524 36197 ft 433 kts 41°
2026-04-26 00:21 55.07099 9.61455 36194 ft 433 kts 41°
2026-04-26 00:22 55.10714 9.69919 36194 ft 448 kts 54°
2026-04-26 00:22 55.12882 9.80269 35855 ft 457 kts 65°
2026-04-26 00:22 55.13795 9.85628 35582 ft 460 kts 65°
2026-04-26 00:23 55.14723 9.91015 35306 ft 462 kts 64°
2026-04-26 00:23 55.15655 9.96341 35117 ft 462 kts 63°
2026-04-26 00:23 55.16607 10.01732 34870 ft 463 kts 63°
2026-04-26 00:23 55.17554 10.07079 34624 ft 464 kts 63°
2026-04-26 00:24 55.18510 10.12503 34359 ft 464 kts 63°
2026-04-26 00:24 55.19139 10.16086 33931 ft 463 kts 63°
2026-04-26 00:24 55.20082 10.21460 33055 ft 466 kts 63°
2026-04-26 00:24 55.21354 10.28732 31787 ft 472 kts 63°
2026-04-26 00:25 55.21995 10.32401 31161 ft 474 kts 64°
2026-04-26 00:25 55.22961 10.37945 30202 ft 477 kts 64°
2026-04-26 00:25 55.23927 10.43522 29052 ft 478 kts 64°
2026-04-26 00:25 55.24896 10.49129 27912 ft 479 kts 64°
2026-04-26 00:26 55.25853 10.54696 26751 ft 481 kts 64°
2026-04-26 00:26 55.26823 10.60347 25699 ft 481 kts 64°
2026-04-26 00:26 55.27777 10.65928 24947 ft 481 kts 64°
2026-04-26 00:26 55.28746 10.71571 24531 ft 483 kts 64°
2026-04-26 00:27 55.29720 10.77243 24341 ft 484 kts 64°
2026-04-26 00:27 55.30682 10.82845 24264 ft 483 kts 64°
2026-04-26 00:27 55.31650 10.88522 24207 ft 482 kts 64°
2026-04-26 00:27 55.32584 10.94057 23902 ft 470 kts 63°
2026-04-26 00:28 55.33455 10.99569 22618 ft 475 kts 66°
2026-04-26 00:28 55.34224 11.05288 21503 ft 476 kts 68°
2026-04-26 00:28 55.34955 11.10894 20722 ft 470 kts 67°
2026-04-26 00:28 55.35685 11.16483 19710 ft 460 kts 67°
2026-04-26 00:29 55.36401 11.21916 18477 ft 455 kts 67°
2026-04-26 00:29 55.37103 11.27218 17377 ft 442 kts 67°
2026-04-26 00:29 55.37770 11.32385 16833 ft 420 kts 68°
2026-04-26 00:29 55.38258 11.37294 16428 ft 399 kts 70°
2026-04-26 00:30 55.38683 11.42032 16100 ft 377 kts 70°
2026-04-26 00:30 55.39079 11.46427 15800 ft 358 kts 69°
2026-04-26 00:30 55.39472 11.50680 15561 ft 343 kts 68°
2026-04-26 00:30 55.39848 11.54702 15414 ft 331 kts 68°
2026-04-26 00:31 55.40222 11.58668 15055 ft 326 kts 68°
2026-04-26 00:31 55.40594 11.62582 14605 ft 326 kts 68°
2026-04-26 00:31 55.40965 11.66532 14186 ft 325 kts 68°
2026-04-26 00:31 55.41329 11.70462 13783 ft 323 kts 69°
2026-04-26 00:32 55.41672 11.74206 13460 ft 319 kts 68°
2026-04-26 00:32 55.42023 11.78048 13051 ft 315 kts 69°
2026-04-26 00:32 55.42714 11.85627 12237 ft 309 kts 70°
2026-04-26 00:33 55.43048 11.89300 11836 ft 307 kts 70°
2026-04-26 00:33 55.43383 11.93002 11473 ft 304 kts 71°
2026-04-26 00:33 55.43712 11.96662 11091 ft 301 kts 71°
2026-04-26 00:33 55.44037 12.00289 10730 ft 298 kts 71°
2026-04-26 00:34 55.44357 12.03881 10358 ft 296 kts 72°
2026-04-26 00:34 55.44674 12.07436 9993 ft 293 kts 72°
2026-04-26 00:34 55.44989 12.10982 9569 ft 291 kts 73°
2026-04-26 00:34 55.45299 12.14489 9161 ft 289 kts 73°
2026-04-26 00:35 55.45609 12.17988 8755 ft 287 kts 73°
2026-04-26 00:35 55.45910 12.21430 8205 ft 283 kts 74°
2026-04-26 00:35 55.46208 12.24826 7467 ft 285 kts 75°
2026-04-26 00:35 55.46514 12.28303 6680 ft 288 kts 76°
2026-04-26 00:36 55.46822 12.31792 5784 ft 292 kts 76°
2026-04-26 00:36 55.47133 12.35361 4832 ft 296 kts 77°
2026-04-26 00:36 55.47445 12.38985 3937 ft 297 kts 77°
2026-04-26 00:36 55.47870 12.42444 3352 ft 281 kts 63°
2026-04-26 00:37 55.48930 12.45213 2682 ft 265 kts 40°
2026-04-26 00:37 55.50314 12.47160 2330 ft 245 kts 32°
2026-04-26 00:37 55.51636 12.48826 2027 ft 228 kts 33°
2026-04-26 00:37 55.52815 12.50488 1744 ft 202 kts 36°
2026-04-26 00:38 55.53784 12.51977 1543 ft 168 kts 36°
2026-04-26 00:38 55.54556 12.53169 1348 ft 130 kts 35°
2026-04-26 00:38 55.55207 12.54167 1130 ft 122 kts 34°
2026-04-26 00:38 55.55852 12.55161 944 ft 123 kts 35°
2026-04-26 00:39 55.56513 12.56166 743 ft 127 kts 35°
2026-04-26 00:39 55.57187 12.57188 573 ft 128 kts 37°
2026-04-26 00:39 55.57850 12.58265 438 ft 129 kts 32°
2026-04-26 00:39 55.58540 12.59284 243 ft 130 kts 35°
2026-04-26 00:40 55.59207 12.60326 56 ft 129 kts 37°
2026-04-26 00:40 55.59851 12.61325 23 ft 113 kts 39°
2026-04-26 00:40 55.60291 12.62008 23 ft 54 kts 43°
2026-04-26 00:40 55.60485 12.62268 24 ft 5 kts 20°
2026-04-26 00:41 55.60528 12.62296 25 ft 8 kts 20°
2026-04-26 00:41 55.60588 12.62328 25 ft 10 kts 14°
2026-04-26 00:41 55.60661 12.62357 24 ft 11 kts 12°
2026-04-26 00:41 55.60744 12.62385 23 ft 13 kts 11°
2026-04-26 00:42 55.60830 12.62457 23 ft 15 kts 37°
2026-04-26 00:42 55.60913 12.62580 23 ft 16 kts 42°
2026-04-26 00:42 55.61002 12.62725 23 ft 18 kts 43°
2026-04-26 00:42 55.61099 12.62881 23 ft 20 kts 41°
2026-04-26 00:43 55.61207 12.63048 23 ft 21 kts 41°
2026-04-26 00:43 55.61323 12.63227 23 ft 23 kts 41°
2026-04-26 00:43 55.61444 12.63414 23 ft 24 kts 41°
2026-04-26 00:43 55.61531 12.63546 23 ft 25 kts 41°
2026-04-26 00:44 55.61666 12.63756 23 ft 27 kts 41°
2026-04-26 00:44 55.61806 12.63976 23 ft 28 kts 41°
2026-04-26 00:44 55.61974 12.64161 22 ft 29 kts 24°
2026-04-26 00:44 55.62162 12.64316 22 ft 30 kts 25°
2026-04-26 00:45 55.62366 12.64438 22 ft 32 kts 15°
2026-04-26 00:45 55.62491 12.64474 22 ft 5 kts 322°
2026-04-26 00:45 55.62519 12.64410 22 ft 8 kts 304°
2026-04-26 00:45 55.62574 12.64263 22 ft 21 kts 303°
2026-04-26 00:46 55.62655 12.64044 22 ft 22 kts 303°
2026-04-26 00:46 55.62771 12.63942 23 ft 22 kts 41°
2026-04-26 00:46 55.62807 12.64076 22 ft 5 kts 113°
2026-04-26 00:46 55.62790 12.64137 25 ft 7 kts 122°
2026-04-26 00:47 55.62783 12.64153 23 ft 0 kts 123°